Location: Unspecified
(40.7945°N, 0.0000°E)
Time: 20:31:49
(UTC+00:00)

Explorer 7 - Pass Details

Date: 20 June 2021
Orbit: 484 x 676 km, 50.3° (Epoch: 30 July)

Event Time Altitude Azimuth Distance (km) Brightness Sun altitude
Rises 03:15:33 0° 301° (WNW) 2,921 10.4 -11.6°
Reaches altitude 10° 03:17:59 10° 296° (WNW) 1,980 9.5 -11.2°
Maximum altitude 03:22:23 53° 221° (SW) 727 7.0 -10.6°
Drops below altitude 10° 03:26:31 10° 144° (SE) 1,850 9.4 -10.1°
Sets 03:28:43 0° 139° (SE) 2,708 10.3 -9.8°
